EA7KZ-10 Weather Reports


time (UTC)temp
F
wind
direction
speed
knots
gust
knots
rain 1hr
in
rain 24hr
in
rain mn
in
humidity
%
barometer
mb
20260510234443 59 0.0 0.0 0.00 0.00 0.00 57 1017.6
20260510233444 59 0.0 0.0 0.00 0.00 0.00 57 1017.5
20260510232444 60 0.0 0.0 0.00 0.00 0.00 57 1017.5
20260510231444 60 0.0 0.0 0.00 0.00 0.00 58 1017.5
20260510230444 60 0.0 0.0 0.00 0.00 0.00 58 1017.4
20260510225444 60 0.0 0.0 0.00 0.00 0.00 59 1017.5
20260510224444 60 0.0 0.0 0.00 0.00 0.00 60 1017.4
20260510223443 60 0.0 0.0 0.00 0.00 0.00 59 1017.4
20260510222444 60 0.0 0.0 0.00 0.00 0.00 59 1017.4
20260510221444 60 0.0 0.0 0.00 0.00 0.00 59 1017.5
20260510220444 60 0.0 0.0 0.00 0.00 0.00 60 1017.5
20260510215444 60 0.0 0.0 0.00 0.00 0.00 60 1017.5
20260510214444 60 0.0 0.0 0.00 0.00 0.00 60 1017.4
20260510213443 60 0.0 0.0 0.00 0.00 0.00 60 1017.3
20260510212444 61 0.0 0.0 0.00 0.00 0.00 59 1017.3
20260510211444 60 0.0 0.0 0.00 0.00 0.00 59 1017.4
20260510210444 61 0.0 0.0 0.00 0.00 0.00 59 1017.3
20260510205444 61 0.0 0.0 0.00 0.00 0.00 58 1017.2
20260510204444 61 0.0 0.0 0.00 0.00 0.00 58 1017.0
20260510203444 61 0.0 0.0 0.00 0.00 0.00 59 1016.9
20260510202444 61 0.0 0.0 0.00 0.00 0.00 59 1017.0
20260510201444 61 0.0 0.0 0.00 0.00 0.00 59 1016.8
20260510200444 61 0.0 0.0 0.00 0.00 0.00 58 1016.6
20260510195444 61 0.0 0.0 0.00 0.00 0.00 59 1016.7
20260510194444 61 0.0 0.0 0.00 0.00 0.00 59 1016.6
20260510193444 61 0.0 0.0 0.00 0.00 0.00 60 1016.4
20260510192444 61 0.0 0.0 0.00 0.00 0.00 59 1016.5
20260510191444 61 0.0 0.0 0.00 0.00 0.00 59 1016.4
20260510190444 61 0.0 0.0 0.00 0.00 0.00 59 1016.2
20260510185443 61 0.0 0.0 0.00 0.00 0.00 59 1016.2
20260510184444 61 0.0 0.0 0.00 0.00 0.00 60 1016.1
20260510183444 61 0.0 0.0 0.00 0.00 0.00 59 1016.0
20260510182444 61 0.0 0.0 0.00 0.00 0.00 60 1015.7
20260510181444 61 0.0 0.0 0.00 0.00 0.00 60 1015.8
20260510180444 61 0.0 0.0 0.00 0.00 0.00 60 1015.6
20260510175444 61 0.0 0.0 0.00 0.00 0.00 60 1015.5
20260510174443 61 0.0 0.0 0.00 0.00 0.00 59 1015.4
20260510173443 61 0.0 0.0 0.00 0.00 0.00 61 1015.3
20260510172443 62 0.0 0.0 0.00 0.00 0.00 62 1015.5
20260510171443 62 0.0 0.0 0.00 0.00 0.00 63 1015.4
20260510170444 62 0.0 0.0 0.00 0.00 0.00 63 1015.3
20260510165444 62 0.0 0.0 0.00 0.00 0.00 63 1015.2
20260510164443 62 0.0 0.0 0.00 0.00 0.00 63 1015.4
20260510163443 62 0.0 0.0 0.00 0.00 0.00 64 1015.5
20260510162443 62 0.0 0.0 0.00 0.00 0.00 65 1015.6
20260510161443 63 0.0 0.0 0.00 0.00 0.00 63 1015.3
20260510160443 63 0.0 0.0 0.00 0.00 0.00 62 1015.1
20260510155444 64 0.0 0.0 0.00 0.00 0.00 58 1014.4
20260510154443 64 0.0 0.0 0.00 0.00 0.00 58 1013.9
20260510153443 64 0.0 0.0 0.00 0.00 0.00 60 1013.9
20260510152443 64 0.0 0.0 0.00 0.00 0.00 59 1013.7
20260510151444 64 0.0 0.0 0.00 0.00 0.00 60 1013.8
20260510150443 64 0.0 0.0 0.00 0.00 0.00 60 1013.9
20260510145443 64 0.0 0.0 0.00 0.00 0.00 60 1013.9
20260510144444 64 0.0 0.0 0.00 0.00 0.00 59 1014.3
20260510143443 64 0.0 0.0 0.00 0.00 0.00 58 1014.3
20260510142443 64 0.0 0.0 0.00 0.00 0.00 58 1014.3
20260510141444 64 0.0 0.0 0.00 0.00 0.00 60 1014.7
20260510140443 64 0.0 0.0 0.00 0.00 0.00 59 1014.8
20260510135443 64 0.0 0.0 0.00 0.00 0.00 58 1014.9
20260510134443 64 0.0 0.0 0.00 0.00 0.00 54 1014.6
20260510133443 64 0.0 0.0 0.00 0.00 0.00 54 1014.5
20260510132443 64 0.0 0.0 0.00 0.00 0.00 56 1014.5
20260510131443 64 0.0 0.0 0.00 0.00 0.00 55 1014.6
20260510130444 64 0.0 0.0 0.00 0.00 0.00 57 1014.5
20260510125443 64 0.0 0.0 0.00 0.00 0.00 56 1014.7
20260510124443 63 0.0 0.0 0.00 0.00 0.00 58 1014.8
20260510123443 63 0.0 0.0 0.00 0.00 0.00 57 1015.0
20260510121443 64 0.0 0.0 0.00 0.00 0.00 57 1015.0
20260510120443 63 0.0 0.0 0.00 0.00 0.00 57 1015.2
20260510115443 64 0.0 0.0 0.00 0.00 0.00 56 1015.2
20260510114443 64 0.0 0.0 0.00 0.00 0.00 52 1014.9
20260510113443 64 0.0 0.0 0.00 0.00 0.00 51 1014.8
20260510112443 64 0.0 0.0 0.00 0.00 0.00 50 1014.6
20260510110443 64 0.0 0.0 0.00 0.00 0.00 49 1015.1
20260510105443 64 0.0 0.0 0.00 0.00 0.00 49 1014.8
20260510104443 64 0.0 0.0 0.00 0.00 0.00 50 1014.9
20260510103443 63 0.0 0.0 0.00 0.00 0.00 50 1015.1
20260510100443 64 0.0 0.0 0.00 0.00 0.00 50 1014.8
20260510095443 64 0.0 0.0 0.00 0.00 0.00 50 1014.9
20260510093443 63 0.0 0.0 0.00 0.00 0.00 50 1014.9
20260510092444 63 0.0 0.0 0.00 0.00 0.00 51 1015.0
20260510091443 63 0.0 0.0 0.00 0.00 0.00 51 1015.2
20260510090443 62 0.0 0.0 0.00 0.00 0.00 52 1015.2
20260510085443 62 0.0 0.0 0.00 0.00 0.00 53 1015.2
20260510084443 61 0.0 0.0 0.00 0.00 0.00 53 1015.3
20260510083443 61 0.0 0.0 0.00 0.00 0.00 54 1015.5
20260510082443 61 0.0 0.0 0.00 0.00 0.00 54 1015.4
20260510081443 60 0.0 0.0 0.00 0.00 0.00 55 1015.6
20260510075443 60 0.0 0.0 0.00 0.00 0.00 56 1015.7
20260510074443 60 0.0 0.0 0.00 0.00 0.00 56 1015.7
20260510073443 60 0.0 0.0 0.00 0.00 0.00 57 1015.8
20260510072443 60 0.0 0.0 0.00 0.00 0.00 57 1015.7
20260510071443 60 0.0 0.0 0.00 0.00 0.00 58 1015.8
20260510070443 59 0.0 0.0 0.00 0.00 0.00 61 1015.8
20260510065443 59 0.0 0.0 0.00 0.00 0.00 59 1015.7
20260510064443 59 0.0 0.0 0.00 0.00 0.00 58 1015.7
20260510063443 59 0.0 0.0 0.00 0.00 0.00 58 1015.5
20260510061443 59 0.0 0.0 0.00 0.00 0.00 58 1015.5
20260510060443 59 0.0 0.0 0.00 0.00 0.00 59 1015.5
20260510055443 59 0.0 0.0 0.00 0.00 0.00 58 1015.5
20260510054443 58 0.0 0.0 0.00 0.00 0.00 61 1015.4
20260510053443 58 0.0 0.0 0.00 0.00 0.00 62 1015.4
20260510052443 58 0.0 0.0 0.00 0.00 0.00 64 1015.4
20260510051443 58 0.0 0.0 0.00 0.00 0.00 64 1015.4
20260510050443 58 0.0 0.0 0.00 0.00 0.00 63 1015.5
20260510045443 58 0.0 0.0 0.00 0.00 0.00 64 1015.4
20260510043443 58 0.0 0.0 0.00 0.00 0.00 63 1015.5
20260510040443 57 0.0 0.0 0.00 0.00 0.00 62 1015.7
20260510035443 58 0.0 0.0 0.00 0.00 0.00 62 1015.8
20260510034443 58 0.0 0.0 0.00 0.00 0.00 62 1015.8
20260510033443 58 0.0 0.0 0.00 0.00 0.00 62 1015.8
20260510032443 58 0.0 0.0 0.00 0.00 0.00 63 1015.9
20260510031443 58 0.0 0.0 0.00 0.00 0.00 63 1016.0
20260510030443 58 0.0 0.0 0.00 0.00 0.00 63 1015.8
20260510025443 58 0.0 0.0 0.00 0.00 0.00 63 1015.7
20260510024443 58 0.0 0.0 0.00 0.00 0.00 63 1015.7
20260510023443 58 0.0 0.0 0.00 0.00 0.00 63 1015.8
20260510022443 58 0.0 0.0 0.00 0.00 0.00 63 1015.8
20260510021443 58 0.0 0.0 0.00 0.00 0.00 62 1015.8
20260510020443 58 0.0 0.0 0.00 0.00 0.00 63 1015.8
20260510015443 59 0.0 0.0 0.00 0.00 0.00 62 1015.9
20260510014443 59 0.0 0.0 0.00 0.00 0.00 62 1015.8
20260510013443 59 0.0 0.0 0.00 0.00 0.00 62 1015.8
20260510012443 59 0.0 0.0 0.00 0.00 0.00 61 1015.8
20260510011443 59 0.0 0.0 0.00 0.00 0.00 61 1015.8
20260510010443 60 0.0 0.0 0.00 0.00 0.00 62 1016.0
20260510005443 60 0.0 0.0 0.00 0.00 0.00 61 1016.0
20260510004443 60 0.0 0.0 0.00 0.00 0.00 60 1016.2
20260510003443 60 0.0 0.0 0.00 0.00 0.00 61 1016.3
20260510002443 60 0.0 0.0 0.00 0.00 0.00 60 1016.2
20260510001443 60 0.0 0.0 0.00 0.00 0.00 58 1016.2
20260510000443 60 0.0 0.0 0.00 0.00 0.00 57 1016.2
20260509235443 60 0.0 0.0 0.00 0.00 0.00 59 1016.1